Wind_Speed
25 24 25 27 28 30 32 34 35 36 37 38 38 38 39 40 40 37 34 27 22 20 20 20 19 21 25 29 34 39 43 46 49 52 54 56 57 57 57 57 57 56 56 55 55 57 59 60 60 61 65 68 67 68 69 66 62 61 58 53 50 51 52 53 53 52 54 57 59 60 62 66 68 69
24 24 25 27 29 31 33 35 37 38 39 39 39 38 37 37 36 34 33 25 16 16 18 18 18 18 21 26 30 36 42 45 47 51 54 56 57 57 57 57 56 56 56 56 55 55 58 61 61 61 65 69 69 69 70 68 64 61 59 55 52 51 52 53 53 54 55 56 58 60 60 62 66 69
24 24 25 27 29 32 34 37 38 39 40 40 39 38 35 33 31 29 30 23 11 13 19 18 19 19 20 23 29 34 40 43 46 50 53 55 57 57 57 56 56 56 55 55 55 55 57 60 62 62 64 70 72 70 71 71 68 64 60 56 54 54 53 54 53 53 55 55 55 58 58 59 62 66
24 25 26 29 31 34 36 38 39 40 40 40 38 34 30 28 27 25 27 25 15 15 22 23 23 23 21 22 27 32 38 42 45 49 52 55 57 57 58 57 56 55 55 55 55 55 56 59 62 63 63 68 73 73 72 74 73 70 64 59 56 55 54 54 55 54 53 53 54 55 56 57 58 62
22 25 27 30 32 34 37 38 40 40 40 38 33 29 26 25 25 24 26 28 24 20 24 26 26 26 25 23 25 31 36 40 43 48 51 54 56 57 58 57 56 56 55 55 55 55 56 57 60 63 62 65 72 76 75 74 75 75 72 67 63 59 57 57 58 59 57 55 55 55 56 57 57 58
22 25 28 30 33 35 37 39 39 39 38 35 28 24 24 24 25 25 27 30 31 27 27 28 28 27 28 25 24 28 35 38 42 46 51 54 56 57 57 58 57 56 56 55 54 55 56 57 58 61 62 62 67 75 78 77 75 75 75 74 71 68 64 62 62 62 61 60 59 59 59 59 58 57
23 26 28 31 33 36 38 38 38 38 36 31 25 23 24 25 26 27 28 30 33 32 29 28 27 26 27 25 23 26 32 37 40 45 50 54 56 57 57 57 56 55 55 55 55 55 56 56 57 59 62 62 63 70 78 80 78 76 76 75 74 73 71 68 65 63 62 62 61 61 62 62 61 59
24 27 29 31 34 36 37 37 37 38 34 29 25 24 24 25 26 27 29 30 30 31 29 27 26 24 24 24 22 23 30 35 39 45 50 53 56 57 57 56 56 55 54 55 55 55 55 56 56 58 61 62 61 64 73 80 80 78 78 77 75 75 73 71 68 65 63 63 63 63 63 64 63 62
24 26 29 31 33 35 36 36 36 36 33 28 26 26 27 29 31 31 32 31 30 29 28 26 24 22 20 21 21 21 27 34 38 43 49 53 56 57 57 56 55 54 53 54 55 55 55 55 55 57 59 61 61 60 65 75 80 80 79 78 77 75 74 72 70 68 67 65 65 64 64 63 63 63
23 26 28 30 32 34 35 35 34 34 32 30 31 33 34 35 35 34 33 32 30 27 26 23 22 20 19 20 20 20 25 32 37 42 47 52 55 56 57 56 55 54 53 53 54 54 54 54 54 56 58 60 61 60 60 67 77 80 79 78 78 76 75 74 72 70 69 68 67 67 65 64 63 64
23 25 27 29 31 33 33 33 33 33 33 34 35 36 36 35 34 33 31 29 26 24 23 21 21 21 20 20 20 20 24 30 35 40 45 50 53 55 57 56 55 54 52 51 53 53 54 54 54 54 57 59 59 59 58 62 71 78 79 77 77 76 75 74 73 71 70 69 69 68 68 66 65 65
22 23 25 28 30 31 32 31 31 31 32 34 35 34 32 31 30 29 26 22 19 19 20 20 21 22 20 19 19 19 22 28 33 37 42 48 52 54 56 56 54 53 51 50 51 53 53 54 54 54 56 58 58 57 56 57 64 73 78 77 76 75 74 73 73 72 71 70 70 70 69 68 66 67
21 22 24 27 28 29 30 28 27 26 28 31 32 31 30 29 30 28 21 17 16 16 17 17 17 18 16 15 16 18 21 25 30 34 39 45 49 52 55 55 54 52 50 49 50 52 53 53 54 54 55 57 57 55 54 54 58 66 74 77 76 74 73 72 71 71 71 71 71 71 70 69 68 68
19 21 23 25 27 28 27 25 23 22 23 26 27 28 28 30 32 27 19 14 14 15 13 12 12 12 11 12 14 16 19 24 28 32 36 41 45 49 52 53 53 51 50 49 50 52 52 52 53 54 54 55 55 54 52 51 53 59 67 72 74 74 73 71 71 71 71 71 71 71 71 70 69 70
18 19 22 24 25 27 26 23 20 19 21 23 25 26 28 31 31 26 17 13 13 13 12 12 13 14 11 10 13 14 16 22 25 28 32 36 39 44 49 50 49 48 49 49 50 50 50 50 52 53 53 53 53 52 50 49 50 53 60 66 69 70 71 70 70 70 71 71 71 71 71 70 71 71
19 19 20 23 25 26 26 23 20 18 19 21 23 26 28 31 30 24 16 13 12 12 12 12 14 16 15 10 11 12 14 21 23 24 27 30 34 40 45 46 45 43 43 46 47 47 48 48 49 51 52 51 52 51 48 47 47 50 55 61 65 66 68 68 69 69 70 71 71 71 70 70 71 71
20 19 20 21 23 25 25 23 20 19 18 19 21 24 27 28 27 22 16 15 14 13 14 14 14 18 18 12 12 15 11 19 22 21 23 27 31 37 41 43 42 38 37 41 42 41 42 44 46 48 49 49 49 48 47 47 47 48 52 58 62 64 64 65 66 67 68 70 70 69 68 68 69 70
22 19 19 21 22 23 24 22 20 19 18 20 21 23 25 26 26 22 16 16 16 15 16 17 17 20 20 16 18 20 8 14 19 18 20 24 29 34 38 40 40 38 36 37 37 36 37 40 43 45 46 46 45 46 46 46 47 47 49 54 59 61 61 62 63 64 66 67 67 66 66 65 66 67
25 20 19 20 21 23 23 21 20 19 19 20 21 22 23 24 25 23 17 15 16 16 18 19 19 21 21 21 24 21 6 9 16 20 21 22 26 32 36 37 36 35 34 33 33 34 35 38 41 43 43 43 42 42 43 44 45 45 46 50 54 57 58 59 60 62 63 64 64 64 63 63 64 65
27 22 18 19 20 22 22 20 19 19 20 20 21 21 21 21 23 23 20 16 14 14 16 17 18 21 21 23 29 22 6 4 11 21 25 22 25 31 34 36 35 34 34 33 33 34 35 36 39 41 41 41 40 40 41 42 43 43 44 47 50 53 55 57 59 61 62 62 62 62 62 62 62 63
27 24 20 18 19 21 21 19 18 18 19 20 21 22 21 19 19 20 21 21 18 16 18 18 19 20 20 25 32 24 6 2 8 19 27 24 25 32 36 35 35 34 33 32 34 36 37 36 37 37 38 39 40 39 40 41 41 42 43 46 49 51 53 55 57 59 61 61 61 61 61 61 61 62
26 24 21 19 18 20 20 18 18 18 19 21 23 23 22 21 19 18 20 24 23 21 21 21 20 20 21 24 29 22 5 4 6 14 25 25 26 36 38 31 32 37 35 31 31 33 35 36 36 35 35 37 39 39 39 39 40 41 43 46 48 50 51 54 56 58 59 60 60 60 60 59 60 61
24 24 21 18 17 19 20 18 17 18 19 21 24 24 23 23 23 22 22 24 25 23 21 20 18 18 19 20 23 20 9 3 6 13 22 25 28 37 38 28 29 37 37 33 30 30 31 34 35 34 34 35 37 37 38 38 39 40 42 45 47 49 50 52 54 56 58 59 59 59 58 59 60 61
23 22 21 18 16 16 18 17 17 18 19 22 25 25 24 24 24 25 26 27 27 25 22 19 17 15 13 14 18 19 13 6 5 12 22 26 28 36 38 31 30 34 32 29 29 29 29 30 30 31 33 34 35 36 37 37 38 39 42 45 47 47 48 50 52 54 56 57 58 58 58 59 60 61
23 21 21 19 15 14 15 16 16 18 20 22 24 24 24 25 24 24 26 26 26 26 24 19 15 12 9 11 15 17 14 10 6 9 20 27 28 32 35 35 33 32 29 27 27 27 28 29 28 27 30 33 34 34 35 36 38 40 42 44 45 46 46 47 49 52 54 56 57 57 57 58 60 62
24 22 21 21 16 13 13 15 16 18 20 22 23 24 24 24 23 22 23 24 23 23 22 18 13 9 7 7 11 14 15 12 9 7 13 24 29 29 31 32 33 32 30 29 30 29 30 30 30 28 28 31 33 33 33 34 37 39 41 43 43 44 44 44 46 48 51 53 55 55 56 57 59 62
24 22 21 21 18 13 12 13 15 17 19 20 21 22 23 23 23 21 20 20 21 21 20 17 12 7 5 5 7 11 15 15 13 10 9 15 25 30 31 31 31 31 29 28 30 31 31 31 31 30 29 30 32 33 33 33 35 38 39 40 40 40 40 41 43 45 47 50 52 53 54 56 58 61
24 23 21 20 20 17 14 14 15 16 18 19 20 21 22 22 21 20 17 17 17 18 17 15 13 8 5 4 4 7 11 15 15 13 11 10 15 22 28 31 32 31 28 24 23 25 28 30 30 30 29 29 31 33 33 33 33 35 36 37 37 37 37 38 40 42 44 46 48 50 52 54 56 59
24 23 21 21 22 22 19 17 16 16 16 17 18 20 20 20 19 18 16 14 14 14 13 13 13 11 7 5 5 6 9 11 13 12 12 11 11 11 16 23 27 27 26 23 21 21 24 27 28 27 28 29 31 32 32 32 32 32 33 35 36 36 36 37 38 39 41 44 45 47 49 51 54 56
24 23 23 23 23 23 22 20 18 17 16 16 17 18 18 18 18 17 16 14 13 12 11 12 12 12 11 10 9 8 7 7 7 9 10 10 11 10 8 12 18 21 21 21 23 23 24 25 26 25 26 28 30 31 32 32 31 31 31 32 34 36 36 36 37 38 40 41 43 44 46 48 51 54
23 23 23 25 25 25 25 24 22 20 18 17 16 16 16 17 18 18 18 17 15 13 12 11 12 12 13 13 11 9 7 5 5 6 7 8 10 11 10 8 12 16 17 18 20 22 23 25 26 26 26 28 30 31 31 32 32 32 32 32 33 35 36 36 37 38 39 40 41 42 44 45 48 52
22 22 23 25 26 26 26 25 23 21 19 17 15 14 15 16 17 18 18 18 16 14 13 11 11 11 11 11 12 11 9 6 4 5 5 6 9 11 12 10 10 12 13 13 14 16 18 22 25 27 28 29 30 30 30 31 31 31 31 31 32 33 34 36 37 37 38 39 40 40 42 44 45 48
20 22 24 24 24 24 23 22 21 20 18 17 15 14 13 14 14 15 15 15 14 13 12 11 10 10 10 10 11 11 11 9 6 4 4 5 7 9 11 12 12 12 12 11 12 12 13 16 20 25 27 28 29 30 30 30 31 30 30 30 30 31 33 35 37 37 37 38 39 39 40 41 43 45
20 22 23 23 22 21 20 20 19 18 18 16 15 13 13 12 13 13 13 14 14 14 12 11 9 9 9 9 9 9 9 9 8 6 4 3 5 7 8 10 11 12 12 12 12 12 12 12 14 17 21 24 27 29 29 30 30 30 29 29 29 30 32 34 36 37 36 37 37 37 38 40 41 42
20 22 23 22 22 21 20 20 19 19 18 18 17 15 14 12 12 12 12 12 14 14 14 13 11 9 8 8 7 7 8 8 8 7 5 3 2 4 5 6 8 9 10 11 11 11 12 12 12 12 14 18 22 26 27 27 28 29 29 29 29 30 31 33 35 35 35 36 36 36 36 38 39 40
19 21 22 22 23 23 22 22 21 20 20 19 18 17 16 14 13 12 12 12 13 13 14 14 13 11 9 8 7 7 7 7 8 7 6 5 3 1 2 4 4 6 7 8 9 10 11 12 13 12 11 12 15 20 23 24 25 26 27 28 28 29 30 33 34 34 34 35 35 35 35 36 36 37
18 20 20 21 22 23 24 24 24 24 24 23 22 21 19 18 17 15 15 15 14 13 13 13 13 12 11 10 9 8 8 7 6 6 6 5 4 2 0 2 3 3 4 5 6 8 10 11 12 12 12 11 11 14 18 20 22 23 24 26 26 26 26 29 31 32 33 33 33 34 34 34 34 34
16 17 18 19 21 22 23 25 26 26 27 27 27 26 25 24 23 21 19 17 16 15 14 13 13 12 12 11 10 9 8 7 7 6 6 5 4 3 2 1 2 2 3 3 4 6 8 9 10 11 11 11 12 13 14 15 16 18 20 22 23 23 23 24 26 27 28 29 30 32 32 32 32 32
14 15 16 17 18 19 21 23 24 25 26 27 28 28 28 28 27 25 24 22 21 19 17 15 14 13 12 12 11 9 8 8 7 6 6 5 4 4 3 2 2 2 3 3 4 5 7 8 10 10 11 11 12 13 13 13 13 13 14 16 19 21 21 22 22 23 24 24 25 27 29 30 31 32
12 13 13 15 16 17 18 20 21 22 23 24 25 26 26 27 27 27 27 27 27 25 23 21 19 16 14 13 12 11 10 9 8 7 6 5 4 4 4 3 3 3 4 4 5 5 6 7 8 10 10 11 11 12 12 12 12 12 12 11 13 15 18 20 20 20 21 22 22 23 24 26 28 30
10 11 11 12 14 15 16 17 19 20 21 21 22 23 24 24 25 25 26 26 27 27 26 25 24 21 18 15 13 12 11 10 9 8 7 6 6 4 4 4 4 5 6 6 7 7 7 7 7 8 9 10 11 11 12 12 12 12 12 11 11 11 13 15 16 17 18 19 21 21 21 22 23 26
8 9 10 10 12 13 14 15 16 18 19 20 20 21 22 22 23 24 24 24 24 24 24 24 24 24 23 20 18 15 13 11 10 9 8 7 7 6 5 5 5 5 7 8 8 9 9 9 9 8 8 9 10 11 11 11 11 11 11 11 11 11 11 11 13 13 14 15 17 19 20 21 22 23
6 7 8 9 10 11 12 13 14 16 17 18 19 20 20 21 22 22 22 22 21 21 22 22 22 22 22 22 21 19 16 14 12 10 9 8 7 7 6 6 6 6 6 8 9 10 11 11 11 11 10 10 10 10 11 12 12 11 11 11 11 11 11 11 11 12 12 12 12 14 17 19 21 22
5 5 6 8 9 10 11 12 13 14 15 16 17 18 19 20 21 21 21 21 21 20 20 20 20 20 20 21 21 20 19 18 16 14 11 10 9 8 7 7 7 7 7 7 8 10 11 12 13 13 13 13 12 12 12 12 13 13 12 12 11 11 11 11 10 11 12 12 11 11 12 15 18 20
4 4 5 6 8 9 10 11 11 12 13 15 16 17 18 19 20 21 21 21 21 20 20 19 19 19 18 19 19 20 20 19 19 17 15 14 12 10 9 8 8 8 8 8 9 9 11 12 13 14 15 15 15 15 14 14 14 14 14 14 13 12 12 11 11 11 11 12 12 12 11 12 13 16
Wind_Direction
323 322 321 318 319 321 322 323 323 324 324 323 321 317 314 311 307 303 299 295 291 283 271 259 250 249 251 246 242 240 238 238 238 238 237 237 235 234 234 234 232 231 230 227 225 224 222 221 220 219 219 219 218 218 221 222 220 219 217 214 211 210 210 213 214 215 216 217 217 217 216 216 217 219
320 319 319 319 322 323 324 325 325 326 324 322 320 316 313 309 306 303 300 297 294 280 270 264 258 252 253 252 246 242 239 237 237 237 237 236 235 233 233 234 233 231 230 227 225 224 222 221 220 218 216 215 215 214 216 219 220 216 213 211 212 212 211 212 213 214 216 217 217 218 219 218 217 218
318 318 320 322 325 325 326 327 326 326 325 322 319 315 312 308 305 302 298 296 295 283 278 278 276 267 258 257 252 244 239 237 236 236 236 235 234 233 232 232 233 231 230 228 225 224 223 221 220 219 216 214 213 212 213 216 217 214 210 208 210 212 212 213 213 213 216 218 217 219 220 221 220 219
315 318 323 327 328 327 328 328 327 326 324 322 318 314 311 308 304 302 297 293 293 289 286 287 286 280 268 261 256 248 241 238 236 234 234 234 233 232 231 230 232 231 230 228 226 224 223 222 221 220 218 214 212 211 212 214 215 214 213 211 210 210 211 214 215 215 217 218 218 218 219 222 223 222
315 323 328 329 329 329 329 329 328 326 324 322 319 315 311 308 305 301 296 293 294 294 291 290 288 285 277 266 258 252 243 238 236 234 233 233 232 231 230 229 230 231 231 229 226 224 223 223 222 221 220 217 213 211 211 212 213 215 217 218 217 216 214 215 217 218 219 222 223 222 221 222 223 224
323 330 331 330 330 330 330 329 327 325 325 323 321 318 313 309 305 302 298 296 296 296 294 291 287 285 282 271 257 252 245 238 236 234 232 232 231 230 229 228 228 229 231 230 227 225 223 223 223 221 221 219 216 213 211 211 212 214 217 220 221 221 220 218 219 220 222 224 226 227 226 225 224 225
331 333 331 331 332 331 330 329 326 326 327 326 324 322 317 310 307 306 305 303 302 298 294 291 288 284 282 274 259 251 246 240 236 233 231 230 230 229 228 227 227 227 229 230 229 226 224 223 223 222 221 220 219 217 214 212 213 215 217 219 220 221 222 221 221 221 222 224 226 227 227 227 226 226
333 333 333 333 333 332 330 328 328 329 331 330 328 325 319 315 314 316 314 311 308 301 294 292 291 286 280 274 264 253 246 241 236 232 230 229 228 228 227 226 225 226 227 229 229 228 225 223 223 223 222 220 220 220 217 215 214 215 216 218 220 221 221 222 221 221 222 223 224 226 227 227 227 227
332 333 333 334 333 332 330 329 330 331 331 332 332 328 324 323 323 323 319 315 311 304 295 291 290 287 279 270 265 256 248 242 236 231 229 228 227 226 226 225 224 224 226 227 229 228 226 224 223 223 223 221 220 220 220 218 216 215 216 217 218 220 221 222 222 221 222 223 224 225 226 226 226 227
332 333 334 333 332 331 329 329 330 332 334 335 334 330 328 328 325 321 317 313 309 301 294 290 288 286 280 268 262 256 249 243 236 231 228 226 226 225 225 224 223 223 224 225 227 228 227 224 222 223 224 223 221 221 221 220 218 216 216 217 218 219 220 222 222 222 222 223 223 224 225 226 226 227
330 333 334 332 331 330 329 329 331 336 338 335 331 329 328 325 322 318 315 310 304 296 291 290 288 285 279 270 261 252 246 243 238 232 228 225 224 224 223 222 222 222 223 223 225 226 226 224 222 221 223 223 222 221 221 221 220 218 217 217 218 218 219 221 222 222 222 223 224 224 225 227 228 228
328 333 333 331 330 330 329 331 336 341 338 330 326 326 325 325 324 321 317 309 301 295 291 291 289 284 279 270 257 244 242 243 239 235 230 223 221 222 221 220 220 220 221 221 222 224 225 223 221 220 221 222 222 221 221 221 221 220 219 219 219 219 220 220 221 222 222 223 224 225 226 227 228 228
325 332 332 330 330 329 329 333 339 341 334 325 323 325 328 333 333 330 323 311 302 298 295 295 292 284 276 264 246 236 241 244 239 236 232 223 219 220 220 219 218 219 219 219 220 222 223 222 220 219 220 221 222 221 221 221 220 219 220 221 221 222 222 222 222 222 222 222 223 225 225 226 227 227
322 329 330 329 329 328 329 333 338 338 330 323 326 331 335 338 338 335 327 315 307 303 304 314 315 303 286 266 249 241 244 244 239 236 232 223 217 218 218 217 217 217 217 218 219 220 221 220 219 218 219 220 221 222 221 221 221 219 219 221 223 224 225 224 223 223 223 223 223 224 225 226 226 227
322 327 329 329 329 328 328 333 339 336 326 324 332 340 342 341 340 337 330 319 311 308 323 346 344 333 321 289 267 254 241 236 235 235 232 223 215 214 216 216 215 216 216 217 218 219 219 218 218 218 219 220 221 223 222 222 222 221 219 219 221 224 226 226 226 224 224 224 224 224 225 226 226 227
323 324 328 329 331 330 329 335 342 333 323 329 340 347 347 344 343 341 332 323 320 321 338 358 351 342 341 321 293 282 251 231 230 234 231 220 211 209 212 212 211 212 215 216 217 217 217 216 216 217 219 221 222 223 223 222 223 223 221 219 220 221 224 226 227 226 225 225 225 225 225 226 227 228
328 324 327 330 332 330 329 338 341 328 327 341 350 353 351 348 349 349 335 324 330 336 345 358 354 345 346 342 331 327 281 227 226 231 223 212 206 204 206 208 206 205 210 214 215 216 215 213 214 216 219 222 224 224 224 223 223 224 223 220 219 219 221 223 225 226 226 226 225 225 224 225 226 227
334 327 326 330 335 331 331 338 338 332 342 356 358 356 353 351 355 355 340 327 334 344 351 355 351 345 347 348 347 347 318 217 215 218 211 207 204 201 201 203 200 196 202 210 212 213 212 212 214 217 220 223 225 225 225 224 224 225 224 221 219 218 218 220 223 225 225 225 224 224 223 223 225 227
338 330 325 330 335 333 334 338 339 343 356 3 4 1 357 358 1 357 346 335 337 344 346 344 344 347 354 356 353 351 339 205 202 203 203 201 201 199 197 195 193 191 197 207 212 212 210 212 215 217 219 223 225 226 226 225 225 226 225 222 219 217 217 218 220 223 224 224 223 223 223 222 223 225
338 334 327 329 334 336 336 337 341 352 2 5 9 7 1 6 10 2 354 348 343 341 339 339 346 351 356 358 355 350 334 182 177 190 197 197 198 197 189 186 189 191 194 203 211 213 211 212 216 218 220 223 225 226 226 225 225 226 225 222 219 217 217 217 218 221 223 223 223 222 223 222 222 223
339 337 331 329 335 338 338 339 344 355 1 5 12 11 5 11 16 11 7 3 355 345 342 347 350 349 352 356 353 349 323 179 145 177 193 196 193 190 185 186 191 191 191 197 204 209 211 212 216 219 220 223 226 226 225 224 224 225 224 221 219 218 217 216 217 219 221 222 222 222 223 222 221 221
338 339 334 329 333 338 340 344 349 356 1 6 11 11 10 13 18 19 18 12 4 354 348 350 351 352 357 351 345 349 350 180 135 161 187 196 191 187 188 190 189 189 195 201 200 204 209 211 216 219 219 222 225 225 224 223 223 223 223 221 219 218 217 216 217 218 219 221 222 222 222 222 220 219
339 342 339 331 331 337 341 346 352 358 4 9 11 10 9 12 17 20 19 13 9 4 358 356 356 358 357 343 338 355 29 137 139 151 178 191 193 194 196 195 187 189 199 205 204 205 207 210 215 218 219 221 222 222 222 221 221 222 222 221 219 218 217 217 217 217 218 220 221 222 222 221 220 218
342 344 344 338 330 332 337 346 357 4 9 12 13 10 8 11 16 16 12 6 4 5 4 4 7 4 355 346 350 7 29 61 123 158 179 189 194 199 205 206 195 192 198 204 208 210 208 210 215 217 218 221 221 219 219 219 219 221 222 220 218 217 217 217 218 218 218 219 220 221 221 220 219 218
346 346 349 347 335 326 334 349 1 9 14 15 13 11 10 11 12 8 5 2 359 359 360 2 10 11 359 360 10 18 28 41 68 148 178 189 194 199 207 211 206 202 206 212 217 219 218 218 220 219 219 220 219 218 217 217 218 220 221 219 218 217 217 218 218 219 219 220 220 221 221 221 220 219
349 348 353 353 343 327 333 353 4 10 16 16 13 12 12 10 6 2 1 0 358 357 357 359 7 13 3 7 24 33 42 48 52 91 159 185 194 195 200 206 208 210 215 219 223 227 227 226 225 225 224 221 218 216 215 216 218 218 219 219 218 218 218 218 219 219 220 220 221 221 221 222 222 220
352 352 353 355 353 343 339 353 5 10 15 15 12 12 13 9 4 359 357 357 356 356 358 1 8 15 6 6 29 44 53 61 65 72 116 170 189 195 198 201 203 207 212 217 220 222 222 222 224 226 226 222 219 215 213 215 217 218 218 219 219 219 219 219 220 221 221 221 221 222 222 223 223 222
355 356 354 355 1 4 358 357 4 9 12 12 10 11 12 7 1 357 355 355 356 357 0 7 16 22 17 8 31 51 58 66 73 78 91 127 167 188 197 201 204 209 216 219 217 215 214 216 220 224 225 222 219 216 214 215 216 217 218 218 218 218 219 219 220 221 222 222 222 222 223 223 223 223
358 358 357 359 6 10 8 5 5 6 6 7 8 9 8 4 359 358 358 358 360 1 5 16 25 30 34 34 43 56 60 63 68 73 82 97 118 151 181 194 200 208 215 218 217 216 216 216 218 221 223 220 217 215 214 214 215 218 219 219 219 219 218 219 221 222 223 223 223 223 223 224 224 224
359 358 359 5 8 9 10 10 8 5 2 3 4 5 4 360 358 1 3 5 6 7 10 19 26 32 40 44 44 47 54 64 70 69 75 90 100 108 139 178 192 199 207 211 213 218 220 219 218 219 220 219 217 215 213 213 215 219 221 221 221 220 219 219 221 222 224 225 225 225 225 225 224 224
360 357 360 7 9 7 8 8 7 5 2 359 357 357 357 358 358 1 4 6 7 8 11 17 23 26 31 37 40 39 40 54 79 85 88 101 113 118 123 148 181 195 205 210 210 213 216 216 216 215 216 219 219 216 214 214 216 219 221 222 221 221 220 220 221 223 225 225 226 226 226 226 225 225
1 1 5 10 10 6 5 3 2 1 359 354 352 350 353 357 359 360 2 2 1 3 7 11 15 19 23 30 35 37 35 34 51 83 102 116 123 129 133 142 158 175 191 199 200 202 206 209 210 213 215 218 218 216 214 214 216 219 221 222 222 221 220 220 221 223 224 225 226 226 226 226 226 225
6 8 12 13 10 6 3 360 358 358 356 354 353 350 350 355 358 359 359 358 358 4 7 6 6 11 18 24 27 29 30 28 28 48 89 113 121 126 134 143 147 150 160 172 178 183 191 199 205 210 214 216 216 214 212 212 214 217 219 220 221 221 220 219 219 220 222 224 225 225 225 226 226 225
13 18 20 18 14 9 5 2 1 1 0 360 359 355 352 353 356 359 1 359 1 7 11 9 8 8 9 13 18 22 25 25 24 28 46 94 119 122 127 137 142 142 145 153 162 169 175 183 194 203 209 212 212 210 210 211 212 215 216 217 218 218 218 218 218 217 219 221 223 224 224 224 225 225
18 24 26 25 22 19 14 11 9 8 9 9 8 7 4 360 356 358 1 3 5 9 11 12 13 12 8 4 5 11 19 22 23 23 25 40 94 123 129 134 139 141 141 143 149 157 165 171 177 186 198 205 206 205 205 207 209 211 214 215 215 215 215 215 216 215 215 217 218 219 221 222 222 223
23 29 30 31 31 30 27 25 23 21 20 18 17 16 15 12 7 4 4 6 8 9 10 12 13 14 14 10 4 4 11 16 17 16 14 14 21 97 143 140 137 138 141 145 147 149 153 158 162 166 175 188 197 199 200 201 202 206 209 210 211 212 212 213 213 214 214 214 214 215 216 217 219 220
28 32 34 35 36 37 37 37 36 36 34 32 30 28 26 23 21 17 12 10 9 8 9 12 13 13 14 15 11 7 6 7 8 6 4 3 360 357 186 177 163 144 138 147 160 162 157 153 153 156 160 169 181 189 192 195 198 200 203 204 203 204 206 208 209 211 213 213 214 214 214 213 213 215
32 35 36 38 39 40 41 42 43 43 43 42 41 39 38 36 34 30 25 19 15 12 11 11 13 14 15 15 13 9 6 6 5 360 353 347 340 337 323 245 208 185 167 162 174 182 179 169 161 156 157 164 171 173 174 181 188 194 199 201 199 197 198 200 201 204 208 211 213 214 215 214 212 211
34 36 38 39 40 41 41 42 43 44 45 45 45 44 44 43 42 41 38 35 31 26 21 16 14 14 14 13 13 12 9 8 4 358 350 341 326 316 305 283 249 226 211 198 193 195 195 190 182 172 162 161 164 163 161 162 168 174 184 194 198 198 197 197 197 198 199 202 207 211 213 214 213 211
32 34 37 38 39 40 41 41 41 42 42 42 43 43 43 43 43 43 42 42 40 38 34 30 26 21 16 13 11 9 9 7 4 358 351 343 329 313 297 282 265 248 236 223 212 208 204 201 197 191 182 173 165 162 161 161 161 161 163 172 186 196 199 199 199 199 198 197 198 202 206 210 212 212
30 30 33 34 35 37 38 38 38 38 37 37 37 37 37 37 37 38 39 40 39 39 39 38 36 33 30 25 19 11 7 4 1 0 356 347 338 325 305 284 265 251 244 239 230 222 217 213 210 204 199 193 185 176 170 166 164 164 163 163 168 180 191 196 198 201 204 204 200 198 198 201 206 210
27 24 26 28 30 32 33 33 33 32 32 32 31 30 30 29 29 30 31 32 33 35 35 36 37 37 36 35 32 27 18 9 2 358 355 350 344 334 317 298 278 257 247 243 240 235 229 224 221 218 214 210 205 200 193 184 175 170 169 169 169 170 175 183 188 193 200 206 208 205 201 199 201 205
20 16 17 19 21 24 27 27 27 26 25 24 24 23 22 22 21 20 21 22 24 26 28 29 31 33 35 35 35 35 31 26 18 7 357 348 341 333 322 309 296 278 258 247 242 240 238 235 230 226 225 222 219 216 213 207 199 190 183 180 178 176 176 179 183 185 187 194 203 208 208 206 204 203
5 5 6 9 10 13 16 18 19 20 18 16 16 15 14 13 12 12 11 12 13 16 19 21 23 26 28 30 31 33 33 32 30 24 14 3 350 338 328 317 307 297 283 266 252 243 240 240 237 233 231 229 227 226 224 221 217 212 207 201 194 189 186 187 190 191 189 189 192 200 207 211 210 208
341 345 351 355 358 1 4 6 8 10 10 9 8 7 6 5 4 4 5 5 6 9 13 15 15 17 20 23 25 27 28 29 29 28 25 20 12 359 346 329 314 303 293 283 273 261 249 243 240 238 236 234 233 232 231 229 227 223 221 219 214 209 204 201 201 203 201 197 195 197 202 210 213 211
Height
2812 2810 2808 2805 2803 2800 2797 2794 2791 2787 2784 2781 2777 2773 2770 2765 2760 2757 2757 2758 2759 2758 2757 2759 2760 2760 2760 2760 2761 2762 2763 2765 2767 2769 2772 2776 2779 2784 2787 2791 2796 2801 2806 2812 2817 2822 2826 2830 2835 2841 2847 2853 2859 2867 2873 2877 2882 2886 2890 2894 2898 2901 2907 2913 2919 2924 2930 2934 2939 2944 2950 2955 2960 2967
2810 2808 2806 2803 2800 2797 2794 2791 2788 2784 2780 2777 2774 2770 2767 2763 2759 2756 2753 2753 2755 2755 2753 2755 2756 2757 2756 2756 2756 2756 2758 2760 2762 2763 2766 2770 2773 2777 2781 2785 2790 2795 2801 2806 2812 2817 2821 2826 2831 2836 2842 2848 2853 2860 2866 2871 2877 2880 2883 2887 2892 2896 2902 2907 2913 2918 2924 2928 2933 2939 2944 2950 2955 2960
2808 2806 2804 2801 2798 2795 2792 2788 2784 2781 2777 2773 2770 2766 2763 2760 2757 2755 2751 2750 2752 2752 2750 2751 2752 2752 2752 2751 2751 2751 2752 2754 2756 2758 2760 2764 2768 2771 2776 2780 2784 2790 2795 2801 2807 2812 2816 2821 2826 2831 2836 2842 2848 2853 2859 2864 2870 2874 2877 2881 2886 2892 2898 2903 2909 2914 2919 2924 2929 2935 2940 2945 2950 2956
2807 2805 2802 2798 2795 2792 2789 2785 2781 2778 2774 2770 2766 2762 2759 2757 2754 2753 2750 2748 2750 2750 2748 2747 2747 2747 2748 2748 2747 2746 2747 2749 2750 2752 2754 2758 2762 2766 2770 2775 2779 2784 2790 2796 2801 2807 2811 2816 2820 2825 2830 2835 2841 2846 2852 2857 2863 2868 2872 2876 2881 2887 2893 2898 2904 2910 2915 2920 2925 2930 2935 2939 2945 2950
2806 2802 2799 2796 2793 2789 2786 2782 2778 2775 2771 2767 2763 2759 2756 2754 2752 2750 2748 2746 2746 2747 2746 2744 2743 2742 2742 2743 2743 2741 2741 2743 2745 2746 2749 2752 2756 2760 2765 2769 2774 2778 2784 2790 2796 2801 2806 2811 2815 2820 2824 2829 2834 2839 2845 2850 2855 2861 2866 2872 2878 2882 2887 2892 2898 2904 2909 2914 2919 2924 2929 2934 2939 2945
2804 2800 2797 2794 2790 2787 2783 2780 2776 2772 2768 2764 2760 2757 2754 2752 2750 2748 2746 2744 2742 2742 2742 2740 2739 2738 2736 2737 2738 2736 2736 2738 2739 2741 2744 2746 2750 2755 2759 2764 2769 2774 2778 2783 2790 2796 2801 2806 2810 2814 2819 2823 2827 2832 2838 2843 2849 2855 2861 2867 2873 2878 2883 2887 2892 2898 2903 2909 2914 2919 2924 2929 2934 2939
2801 2798 2795 2791 2788 2784 2781 2777 2773 2769 2765 2761 2757 2755 2752 2750 2748 2747 2744 2742 2739 2737 2737 2736 2735 2734 2732 2731 2733 2732 2731 2732 2734 2735 2738 2741 2745 2749 2754 2759 2764 2769 2773 2777 2783 2789 2795 2800 2804 2809 2813 2818 2822 2827 2831 2837 2843 2850 2856 2862 2868 2873 2877 2882 2887 2893 2898 2903 2908 2913 2918 2923 2928 2933
2799 2796 2792 2789 2786 2782 2778 2775 2771 2767 2763 2759 2755 2753 2751 2748 2746 2745 2742 2740 2736 2733 2731 2731 2730 2729 2728 2727 2728 2728 2726 2727 2728 2730 2733 2736 2740 2744 2749 2754 2759 2764 2768 2771 2776 2782 2789 2794 2799 2803 2808 2813 2817 2822 2826 2832 2838 2845 2851 2856 2862 2867 2871 2876 2882 2887 2892 2897 2902 2907 2912 2917 2922 2927
2797 2794 2790 2787 2784 2780 2777 2773 2769 2765 2761 2757 2754 2751 2748 2746 2744 2742 2739 2736 2733 2730 2727 2727 2726 2725 2725 2723 2723 2723 2722 2722 2723 2725 2728 2731 2735 2740 2744 2749 2755 2760 2763 2767 2771 2776 2782 2789 2794 2798 2803 2808 2813 2817 2822 2827 2833 2839 2845 2850 2855 2860 2865 2870 2876 2881 2886 2891 2896 2901 2907 2912 2916 2921
2796 2792 2789 2785 2782 2779 2775 2771 2767 2763 2758 2754 2751 2748 2746 2744 2741 2738 2735 2732 2729 2726 2724 2723 2722 2722 2721 2720 2719 2719 2718 2717 2718 2720 2722 2726 2730 2734 2739 2745 2750 2755 2759 2763 2767 2771 2777 2783 2789 2794 2798 2803 2808 2813 2817 2822 2827 2833 2838 2844 2849 2854 2859 2864 2870 2875 2880 2885 2890 2895 2900 2906 2911 2915
2794 2791 2787 2784 2781 2778 2774 2770 2765 2760 2756 2752 2750 2747 2745 2742 2739 2735 2732 2729 2726 2723 2721 2720 2719 2718 2717 2716 2715 2714 2713 2713 2714 2715 2717 2720 2724 2729 2733 2739 2744 2750 2754 2759 2763 2767 2771 2778 2784 2789 2793 2798 2803 2808 2812 2817 2821 2826 2832 2837 2843 2848 2853 2859 2864 2869 2874 2879 2884 2889 2894 2900 2905 2910
2793 2789 2786 2783 2780 2777 2773 2768 2764 2759 2755 2751 2749 2746 2744 2740 2736 2732 2729 2725 2723 2720 2719 2718 2716 2715 2713 2712 2711 2711 2710 2710 2710 2711 2711 2714 2719 2724 2728 2734 2740 2745 2750 2754 2758 2762 2767 2772 2778 2784 2789 2793 2797 2803 2807 2812 2816 2820 2826 2832 2837 2842 2848 2853 2858 2863 2868 2872 2877 2882 2888 2893 2899 2904
2791 2788 2785 2782 2779 2776 2772 2768 2764 2760 2756 2752 2748 2745 2742 2738 2733 2730 2726 2723 2720 2718 2717 2715 2713 2711 2710 2709 2708 2708 2707 2706 2707 2707 2706 2709 2715 2719 2724 2730 2735 2740 2746 2750 2755 2759 2763 2768 2773 2779 2784 2788 2793 2798 2802 2807 2811 2815 2821 2827 2832 2837 2842 2847 2852 2856 2861 2866 2871 2876 2881 2887 2892 2898
2790 2787 2784 2781 2778 2775 2772 2768 2764 2761 2757 2752 2748 2744 2740 2735 2731 2727 2724 2721 2719 2717 2715 2713 2711 2709 2708 2707 2706 2705 2704 2703 2703 2703 2703 2706 2711 2715 2719 2726 2732 2737 2742 2746 2751 2755 2759 2764 2769 2774 2780 2785 2789 2793 2797 2802 2807 2812 2817 2822 2828 2833 2837 2842 2846 2850 2854 2859 2864 2869 2875 2880 2886 2891
2789 2786 2783 2780 2777 2774 2771 2767 2763 2760 2756 2751 2747 2742 2738 2734 2729 2725 2722 2720 2718 2715 2713 2711 2709 2707 2705 2704 2703 2703 2702 2700 2700 2700 2701 2702 2707 2711 2716 2722 2729 2734 2739 2743 2747 2751 2756 2761 2766 2770 2776 2781 2785 2789 2794 2799 2804 2808 2813 2817 2823 2827 2832 2836 2840 2843 2848 2852 2858 2863 2869 2874 2879 2884
2786 2784 2781 2779 2776 2772 2769 2765 2762 2759 2754 2749 2745 2741 2737 2732 2728 2724 2721 2719 2716 2714 2711 2710 2708 2705 2703 2702 2701 2700 2699 2698 2698 2698 2698 2700 2703 2708 2713 2719 2726 2732 2736 2740 2743 2748 2753 2758 2762 2767 2772 2776 2781 2785 2790 2795 2799 2803 2807 2812 2816 2821 2825 2830 2833 2837 2842 2846 2852 2857 2862 2868 2873 2878
2784 2782 2780 2777 2774 2771 2767 2764 2760 2757 2753 2748 2744 2740 2736 2732 2728 2724 2721 2718 2715 2712 2710 2708 2706 2704 2701 2699 2699 2698 2696 2695 2695 2696 2697 2699 2701 2705 2710 2716 2723 2729 2734 2737 2741 2746 2751 2755 2759 2764 2768 2772 2777 2781 2785 2789 2794 2798 2802 2806 2810 2815 2819 2823 2827 2832 2836 2841 2846 2851 2856 2862 2866 2871
2783 2780 2778 2776 2773 2770 2766 2763 2759 2755 2750 2746 2743 2740 2736 2732 2727 2724 2721 2717 2714 2711 2708 2706 2705 2703 2700 2697 2696 2695 2694 2694 2694 2695 2696 2698 2700 2704 2709 2714 2720 2725 2731 2736 2739 2744 2748 2752 2756 2760 2765 2769 2773 2777 2781 2784 2788 2792 2796 2800 2804 2808 2813 2817 2821 2826 2830 2835 2840 2845 2850 2855 2860 2865
2781 2778 2776 2774 2771 2768 2765 2761 2757 2753 2749 2745 2742 2739 2736 2732 2727 2724 2721 2718 2714 2711 2709 2706 2704 2702 2699 2696 2693 2692 2692 2693 2693 2694 2696 2698 2701 2704 2708 2714 2719 2724 2729 2734 2738 2742 2746 2750 2753 2757 2762 2765 2769 2773 2776 2779 2783 2787 2791 2794 2798 2802 2807 2811 2815 2820 2825 2830 2835 2839 2844 2849 2854 2859
2780 2777 2775 2772 2770 2767 2764 2760 2756 2752 2748 2745 2742 2739 2736 2732 2728 2724 2721 2718 2715 2712 2710 2707 2704 2702 2699 2695 2692 2690 2691 2692 2692 2694 2696 2699 2701 2705 2709 2714 2720 2724 2728 2732 2736 2739 2743 2747 2750 2754 2759 2762 2765 2769 2772 2775 2779 2782 2786 2789 2793 2797 2801 2805 2810 2814 2820 2825 2829 2834 2839 2843 2848 2852
2779 2776 2773 2771 2769 2766 2763 2760 2755 2751 2748 2744 2741 2738 2736 2732 2729 2725 2721 2718 2715 2712 2710 2707 2705 2702 2699 2695 2692 2691 2691 2691 2692 2694 2696 2699 2702 2706 2710 2716 2720 2724 2728 2731 2734 2737 2741 2745 2749 2752 2756 2759 2762 2765 2768 2771 2775 2778 2781 2785 2788 2792 2795 2800 2804 2809 2815 2820 2824 2829 2833 2837 2842 2846
2779 2775 2772 2769 2767 2765 2762 2759 2755 2751 2747 2743 2740 2737 2735 2732 2729 2725 2722 2719 2716 2713 2710 2708 2705 2703 2700 2697 2695 2693 2692 2692 2693 2695 2697 2700 2703 2706 2710 2715 2719 2723 2727 2730 2732 2736 2740 2744 2747 2750 2753 2756 2758 2761 2765 2768 2771 2774 2777 2780 2784 2787 2791 2795 2800 2805 2810 2815 2819 2823 2828 2832 2836 2840
2778 2775 2771 2768 2766 2764 2761 2758 2754 2750 2746 2743 2739 2736 2734 2731 2728 2724 2721 2719 2717 2715 2712 2709 2707 2705 2702 2701 2698 2695 2694 2694 2695 2696 2699 2701 2704 2706 2710 2713 2717 2721 2725 2728 2731 2735 2739 2742 2745 2748 2751 2753 2755 2758 2761 2764 2767 2770 2773 2777 2780 2784 2787 2791 2795 2799 2804 2809 2814 2818 2822 2826 2830 2834
2778 2775 2771 2768 2766 2764 2761 2758 2754 2750 2746 2742 2739 2736 2733 2730 2727 2724 2722 2720 2718 2716 2714 2711 2709 2707 2707 2706 2702 2698 2696 2696 2696 2698 2700 2703 2705 2707 2710 2712 2716 2720 2724 2727 2731 2734 2737 2740 2743 2746 2748 2750 2752 2755 2758 2761 2764 2767 2770 2773 2777 2780 2784 2787 2790 2794 2799 2803 2808 2812 2816 2820 2825 2829
2777 2774 2771 2768 2765 2763 2761 2758 2754 2750 2746 2743 2740 2737 2734 2731 2728 2726 2724 2722 2720 2718 2715 2713 2711 2710 2709 2708 2706 2702 2699 2698 2698 2699 2701 2704 2707 2709 2711 2714 2717 2720 2723 2726 2730 2733 2736 2739 2741 2744 2746 2748 2750 2753 2755 2758 2761 2764 2767 2770 2774 2777 2780 2783 2786 2790 2794 2798 2803 2807 2811 2816 2820 2824
2777 2774 2770 2767 2765 2763 2761 2758 2754 2751 2747 2744 2741 2738 2735 2733 2731 2729 2726 2724 2722 2720 2717 2715 2713 2712 2711 2710 2708 2705 2703 2701 2700 2701 2702 2705 2708 2710 2713 2715 2718 2721 2724 2726 2729 2731 2734 2737 2739 2742 2744 2745 2748 2750 2752 2755 2758 2761 2764 2767 2770 2773 2776 2779 2782 2786 2790 2794 2798 2803 2807 2811 2815 2819
2776 2773 2770 2767 2764 2762 2759 2757 2754 2751 2748 2745 2743 2740 2737 2735 2733 2730 2728 2726 2724 2721 2719 2717 2714 2713 2712 2710 2709 2708 2706 2704 2703 2703 2704 2706 2708 2711 2713 2716 2718 2721 2724 2726 2728 2729 2732 2734 2737 2740 2741 2743 2745 2747 2750 2752 2755 2758 2761 2764 2767 2770 2773 2775 2778 2782 2786 2790 2794 2798 2802 2806 2810 2814
2776 2773 2770 2767 2764 2761 2758 2756 2754 2751 2748 2746 2743 2741 2739 2737 2735 2732 2730 2728 2725 2723 2721 2719 2716 2714 2713 2711 2710 2710 2708 2707 2706 2706 2706 2707 2709 2711 2714 2716 2718 2721 2723 2725 2726 2728 2730 2732 2735 2737 2739 2741 2743 2745 2747 2750 2752 2755 2758 2761 2763 2766 2769 2772 2775 2778 2782 2785 2789 2793 2797 2801 2805 2809
2776 2772 2769 2766 2762 2760 2757 2755 2753 2751 2749 2747 2744 2742 2740 2738 2736 2734 2732 2729 2727 2725 2723 2721 2719 2717 2715 2714 2712 2711 2710 2709 2709 2709 2709 2709 2710 2711 2714 2716 2718 2720 2722 2724 2725 2726 2728 2730 2732 2734 2736 2738 2740 2743 2745 2747 2750 2753 2755 2757 2760 2763 2766 2769 2772 2775 2778 2781 2785 2788 2792 2796 2800 2803
2775 2772 2769 2765 2761 2759 2757 2755 2752 2751 2749 2747 2744 2743 2741 2739 2737 2735 2732 2730 2728 2726 2725 2723 2721 2720 2718 2716 2714 2713 2712 2712 2711 2711 2711 2711 2711 2712 2713 2715 2717 2719 2721 2722 2724 2725 2727 2728 2730 2732 2734 2736 2738 2740 2742 2745 2748 2750 2753 2755 2757 2760 2762 2765 2768 2771 2774 2777 2780 2784 2788 2791 2794 2797
2776 2772 2769 2764 2760 2758 2755 2753 2752 2750 2748 2746 2745 2743 2742 2740 2737 2735 2732 2730 2729 2727 2726 2724 2723 2721 2719 2718 2717 2716 2715 2714 2714 2713 2713 2713 2713 2713 2714 2716 2717 2718 2719 2721 2722 2724 2725 2727 2728 2730 2732 2734 2736 2738 2740 2743 2745 2747 2750 2752 2754 2756 2759 2762 2765 2767 2770 2773 2776 2779 2783 2786 2789 2793
2776 2773 2768 2763 2759 2757 2754 2753 2751 2750 2748 2747 2745 2744 2742 2740 2738 2735 2732 2731 2729 2728 2726 2725 2724 2722 2721 2719 2718 2717 2717 2716 2715 2715 2715 2715 2715 2715 2716 2717 2717 2718 2719 2720 2721 2722 2723 2725 2727 2728 2730 2732 2734 2736 2738 2740 2742 2745 2747 2749 2751 2753 2756 2758 2761 2764 2767 2769 2772 2775 2778 2781 2784 2788
2777 2773 2768 2764 2761 2758 2756 2754 2753 2751 2749 2747 2745 2744 2742 2740 2738 2736 2734 2732 2730 2729 2727 2726 2724 2723 2722 2720 2719 2718 2718 2717 2717 2716 2716 2716 2716 2716 2717 2718 2718 2719 2719 2720 2721 2721 2722 2724 2725 2727 2729 2730 2732 2734 2736 2738 2740 2742 2744 2746 2748 2750 2752 2755 2757 2760 2763 2766 2768 2771 2774 2777 2780 2783
2777 2773 2769 2765 2763 2761 2759 2756 2754 2752 2750 2748 2746 2744 2742 2741 2739 2737 2735 2733 2731 2729 2728 2726 2725 2724 2722 2721 2720 2720 2719 2718 2718 2717 2717 2717 2717 2718 2718 2719 2719 2720 2720 2721 2721 2721 2722 2723 2724 2726 2727 2729 2730 2732 2734 2735 2737 2739 2741 2743 2745 2747 2749 2751 2754 2756 2759 2762 2765 2767 2770 2772 2775 2778
2777 2773 2770 2767 2765 2762 2760 2758 2755 2753 2751 2748 2746 2744 2743 2741 2739 2738 2736 2734 2732 2730 2728 2727 2726 2725 2723 2722 2721 2720 2720 2719 2719 2718 2718 2718 2718 2719 2719 2720 2720 2720 2721 2721 2721 2722 2722 2723 2724 2725 2726 2728 2729 2730 2732 2734 2735 2737 2739 2740 2742 2744 2745 2748 2750 2753 2756 2758 2761 2763 2766 2769 2771 2774
2777 2774 2771 2769 2766 2764 2762 2759 2757 2754 2752 2749 2747 2745 2743 2742 2740 2738 2737 2735 2733 2731 2729 2728 2726 2725 2724 2723 2722 2721 2720 2720 2719 2719 2719 2719 2719 2719 2720 2720 2720 2721 2721 2721 2722 2723 2723 2723 2724 2725 2725 2727 2728 2729 2730 2732 2733 2735 2737 2738 2740 2741 2743 2744 2747 2749 2752 2754 2757 2760 2762 2765 2768 2770
2778 2775 2773 2771 2768 2766 2763 2761 2758 2756 2753 2751 2749 2746 2744 2743 2741 2739 2737 2736 2734 2733 2731 2729 2727 2726 2725 2724 2723 2722 2721 2720 2720 2720 2720 2720 2720 2720 2720 2720 2720 2721 2721 2721 2722 2723 2724 2724 2725 2725 2726 2727 2728 2728 2729 2730 2732 2733 2735 2736 2737 2739 2740 2742 2744 2746 2749 2751 2754 2757 2759 2762 2764 2766
2778 2776 2774 2772 2770 2767 2765 2763 2760 2758 2756 2753 2751 2748 2746 2744 2742 2740 2738 2737 2735 2734 2732 2730 2729 2727 2726 2725 2724 2723 2722 2721 2721 2720 2720 2720 2720 2720 2720 2721 2721 2721 2721 2722 2722 2723 2724 2725 2725 2726 2726 2727 2728 2728 2729 2729 2730 2732 2733 2734 2735 2737 2738 2740 2742 2744 2746 2748 2751 2753 2756 2758 2761 2763
2779 2777 2775 2773 2771 2769 2767 2765 2763 2760 2758 2756 2754 2751 2749 2747 2745 2743 2741 2739 2736 2735 2733 2731 2730 2729 2727 2726 2725 2724 2723 2722 2722 2721 2721 2721 2721 2721 2721 2721 2721 2721 2721 2722 2723 2723 2724 2725 2725 2726 2727 2727 2728 2728 2729 2729 2730 2731 2732 2733 2734 2735 2737 2738 2740 2742 2744 2746 2748 2750 2753 2755 2757 2759
2779 2777 2776 2774 2772 2770 2769 2766 2764 2763 2760 2758 2756 2754 2752 2750 2748 2746 2743 2741 2739 2737 2735 2733 2731 2730 2728 2727 2726 2725 2724 2723 2722 2722 2721 2721 2721 2721 2721 2721 2721 2721 2721 2722 2723 2723 2724 2724 2725 2726 2727 2727 2728 2729 2729 2730 2730 2731 2731 2732 2733 2734 2735 2737 2738 2740 2742 2743 2745 2747 2749 2752 2754 2756
2778 2777 2776 2775 2773 2771 2770 2768 2766 2764 2762 2760 2758 2756 2754 2752 2750 2748 2746 2744 2742 2740 2738 2735 2734 2732 2730 2728 2727 2726 2724 2724 2723 2722 2721 2721 2721 2721 2721 2721 2721 2721 2721 2722 2722 2723 2724 2724 2725 2726 2726 2727 2728 2728 2729 2730 2730 2731 2732 2732 2733 2734 2735 2736 2737 2739 2740 2742 2743 2745 2747 2749 2751 2753
2778 2777 2776 2775 2773 2772 2770 2768 2767 2765 2763 2761 2760 2758 2756 2754 2752 2750 2748 2746 2744 2742 2740 2738 2736 2734 2732 2730 2729 2727 2726 2724 2723 2723 2722 2721 2721 2721 2720 2721 2721 2721 2721 2721 2722 2723 2723 2724 2725 2725 2726 2727 2727 2728 2729 2729 2730 2731 2731 2732 2733 2734 2735 2736 2736 2737 2739 2740 2742 2744 2745 2747 2749 2751
2777 2776 2776 2774 2773 2772 2770 2769 2767 2765 2764 2762 2760 2759 2757 2755 2754 2752 2750 2748 2746 2744 2742 2740 2738 2736 2734 2732 2730 2729 2727 2726 2724 2723 2722 2722 2721 2721 2720 2720 2720 2720 2721 2721 2721 2722 2722 2723 2724 2725 2725 2726 2727 2727 2728 2729 2730 2730 2731 2732 2733 2734 2735 2736 2736 2737 2738 2739 2741 2742 2744 2746 2747 2749
2776 2776 2775 2774 2773 2771 2770 2769 2767 2766 2764 2763 2761 2760 2758 2756 2755 2753 2751 2749 2747 2745 2743 2741 2740 2738 2736 2734 2732 2730 2729 2727 2725 2724 2723 2722 2721 2721 2720 2720 2720 2720 2720 2720 2720 2721 2721 2722 2723 2723 2724 2725 2726 2727 2727 2728 2729 2730 2731 2731 2732 2733 2734 2735 2736 2737 2738 2739 2740 2741 2743 2744 2746 2748
2775 2775 2774 2773 2772 2771 2770 2768 2767 2766 2764 2763 2762 2760 2758 2757 2755 2753 2752 2750 2748 2746 2744 2742 2740 2739 2737 2735 2733 2732 2730 2729 2727 2726 2724 2723 2722 2721 2720 2720 2720 2719 2719 2719 2719 2720 2720 2720 2721 2722 2722 2723 2724 2725 2726 2727 2728 2729 2730 2731 2731 2732 2733 2734 2735 2736 2737 2738 2739 2741 2742 2743 2744 2746